Tracking 19817 objects as of 20-Aug-2019
HD Live streaming from Space Station
objects crossing your sky now

COSMOS 860 COOLANT

Track COSMOS 860 COOLANT now!
10-day predictions


NORAD ID: 29195
Int'l Code: 1976-103H
Perigee: 917.0 km
Apogee: 982.3 km
Inclination: 64.7 °
Period: 103.9 minutes
Semi major axis: 7320 km
RCS: 0.0092 m2 (small)
Launch date: October 17, 1976
Source: Commonwealth of Independent States (former USSR) (CIS)
Launch site: TYURATAM MISSILE AND SPACE COMPLEX (TTMTR)

Note: This is SATELLITE DEBRIS
aabbcc
Your satellite tracking list
Your tracking list is empty




NASA's NSSDC Master Catalog

Two Line Element Set (TLE):
1 29195U 76103H   19231.01630113 -.00000026  00000-0  55986-4 0  9990
2 29195  64.6984  81.8944 0044532 151.9842 208.3627 13.86048773830092
Source of the keplerian elements: AFSPC